When you browse on this site, cookies collect data to enhance your experience and personalize the content and advertising you see.
Visit our Privacy Policy to learn more. By continuing to use the site, you agree to this use of cookies and data.
  • En España
  • Lista de países
  • Para 7 días
  • Temperatura del agua
  • Mapa Satelital
  • El tiempo en el mapa
  • Informadores
  • user-avatar
    Iniciar sesión

    Tiempo cada hora Kruhlyk

    Hoy, 19 Marzo, Martes

    Tiempo Temperatura Precipitaciones Viento Presión Humedad
    00:00 +4°C° 0 mm 4 mps 754 mmHg 76%
    01:00 +4°C° 0 mm 4 mps 754 mmHg 78%
    02:00 +3°C° 0 mm 3 mps 754 mmHg 85%
    03:00 +2°C° 0 mm 3 mps 754 mmHg 86%
    04:00 +2°C° 0 mm 3 mps 754 mmHg 87%
    05:00 +1°C° 0 mm 4 mps 754 mmHg 87%
    06:00 +3°C° 0 mm 4 mps 754 mmHg 84%
    07:00 +4°C° 0 mm 4 mps 754 mmHg 80%
    08:00 +3°C° 0 mm 5 mps 755 mmHg 77%
    09:00 +6°C° 0 mm 5 mps 755 mmHg 70%
    10:00 +7°C° 0 mm 5 mps 755 mmHg 63%
    11:00 +9°C° 0 mm 5 mps 755 mmHg 56%
    12:00 +10°C° 0 mm 5 mps 755 mmHg 53%
    13:00 +10°C° 0 mm 5 mps 755 mmHg 49%
    14:00 +13°C° 0 mm 4 mps 754 mmHg 44%
    15:00 +12°C° 0 mm 3 mps 754 mmHg 47%
    16:00 +12°C° 0 mm 3 mps 754 mmHg 49%
    17:00 +13°C° 0 mm 2 mps 754 mmHg 52%
    18:00 +10°C° 0 mm 2 mps 754 mmHg 55%
    19:00 +9°C° 0 mm 2 mps 754 mmHg 59%
    20:00 +8°C° 0 mm 2 mps 755 mmHg 62%
    21:00 +8°C° 0 mm 2 mps 755 mmHg 65%
    22:00 +7°C° 0 mm 2 mps 755 mmHg 68%
    23:00 +7°C° 0 mm 2 mps 755 mmHg 71%

    Mañana, 20 Marzo, Miércoles

    Tiempo Temperatura Precipitaciones Viento Presión Humedad
    00:00 +7°C° 0 mm 2 mps 755 mmHg 74%
    01:00 +6°C° 0 mm 2 mps 755 mmHg 76%
    02:00 +6°C° 0 mm 2 mps 755 mmHg 79%
    03:00 +6°C° 0.1 mm 2 mps 755 mmHg 81%
    04:00 +5°C° 0.1 mm 2 mps 755 mmHg 83%
    05:00 +5°C° 0.1 mm 2 mps 755 mmHg 84%
    06:00 +6°C° 0 mm 2 mps 755 mmHg 82%
    07:00 +6°C° 0 mm 2 mps 755 mmHg 79%
    08:00 +7°C° 0 mm 2 mps 755 mmHg 76%
    09:00 +8°C° 0 mm 3 mps 755 mmHg 70%
    10:00 +10°C° 0 mm 3 mps 755 mmHg 64%
    11:00 +11°C° 0 mm 3 mps 755 mmHg 57%
    12:00 +11°C° 0 mm 3 mps 755 mmHg 56%
    13:00 +12°C° 0 mm 3 mps 755 mmHg 55%
    14:00 +12°C° 0 mm 3 mps 755 mmHg 54%
    15:00 +11°C° 0.1 mm 4 mps 755 mmHg 62%
    16:00 +8°C° 0.1 mm 5 mps 755 mmHg 69%
    17:00 +7°C° 0.1 mm 5 mps 755 mmHg 76%
    18:00 +6°C° 0.1 mm 5 mps 756 mmHg 75%
    19:00 +6°C° 0.1 mm 4 mps 756 mmHg 74%
    20:00 +5°C° 0.1 mm 4 mps 756 mmHg 73%
    21:00 +5°C° 0 mm 3 mps 756 mmHg 76%
    22:00 +4°C° 0 mm 3 mps 756 mmHg 78%
    23:00 +5°C° 0 mm 2 mps 757 mmHg 80%

    Pasado mañana, 21 Marzo, Jueves

    Tiempo Temperatura Precipitaciones Viento Presión Humedad
    00:00 +4°C° 0 mm 2 mps 757 mmHg 79%
    01:00 +3°C° 0 mm 2 mps 757 mmHg 79%
    02:00 +2°C° 0 mm 3 mps 757 mmHg 78%
    03:00 +1°C° 0 mm 3 mps 757 mmHg 78%
    04:00 +1°C° 0 mm 2 mps 757 mmHg 79%
    05:00 +1°C° 0 mm 2 mps 757 mmHg 79%
    06:00 +1°C° 0 mm 3 mps 757 mmHg 76%
    07:00 +1°C° 0 mm 3 mps 757 mmHg 74%
    08:00 +1°C° 0 mm 4 mps 757 mmHg 72%
    09:00 +3°C° 0 mm 4 mps 757 mmHg 65%
    10:00 +3°C° 0 mm 5 mps 756 mmHg 59%
    11:00 +5°C° 0 mm 5 mps 756 mmHg 53%
    12:00 +6°C° 0 mm 5 mps 756 mmHg 51%
    13:00 +7°C° 0 mm 6 mps 755 mmHg 49%
    14:00 +6°C° 0 mm 7 mps 755 mmHg 48%
    15:00 +7°C° 0 mm 6 mps 755 mmHg 52%
    16:00 +5°C° 0 mm 6 mps 755 mmHg 56%
    17:00 +5°C° 0 mm 6 mps 754 mmHg 60%
    18:00 +5°C° 0 mm 5 mps 755 mmHg 63%
    19:00 +5°C° 0 mm 5 mps 755 mmHg 66%
    20:00 +4°C° 0 mm 4 mps 755 mmHg 69%
    21:00 +4°C° 0 mm 3 mps 755 mmHg 73%
    22:00 +3°C° 0 mm 3 mps 755 mmHg 76%
    23:00 +3°C° 0 mm 3 mps 756 mmHg 79%

    22 Marzo, Viernes

    Tiempo Temperatura Precipitaciones Viento Presión Humedad
    00:00 +2°C° 0 mm 3 mps 755 mmHg 82%
    01:00 +2°C° 0 mm 2 mps 755 mmHg 85%
    02:00 +2°C° 0 mm 2 mps 755 mmHg 88%
    03:00 +2°C° 0 mm 2 mps 755 mmHg 89%
    04:00 +2°C° 0 mm 2 mps 755 mmHg 89%
    05:00 +2°C° 0 mm 2 mps 755 mmHg 89%
    06:00 +1°C° 0.1 mm 3 mps 755 mmHg 86%
    07:00 +2°C° 0.1 mm 3 mps 755 mmHg 83%
    08:00 +3°C° 0.1 mm 3 mps 755 mmHg 80%
    09:00 +5°C° 0 mm 4 mps 754 mmHg 74%
    10:00 +6°C° 0 mm 5 mps 754 mmHg 69%
    11:00 +8°C° 0 mm 6 mps 753 mmHg 64%
    12:00 +7°C° 0 mm 6 mps 753 mmHg 70%
    13:00 +7°C° 0 mm 6 mps 752 mmHg 75%
    14:00 +5°C° 0 mm 6 mps 752 mmHg 81%
    15:00 +5°C° 0 mm 6 mps 751 mmHg 82%
    16:00 +5°C° 0 mm 6 mps 751 mmHg 84%
    17:00 +5°C° 0 mm 6 mps 751 mmHg 85%
    18:00 +5°C° 0.1 mm 6 mps 751 mmHg 86%
    19:00 +5°C° 0.1 mm 6 mps 751 mmHg 87%
    20:00 +5°C° 0.1 mm 6 mps 751 mmHg 88%
    21:00 +5°C° 0 mm 6 mps 751 mmHg 84%
    22:00 +5°C° 0 mm 6 mps 751 mmHg 80%
    23:00 +5°C° 0 mm 6 mps 751 mmHg 77%

    23 Marzo, Sábado

    Tiempo Temperatura Precipitaciones Viento Presión Humedad
    00:00 +5°C° 0 mm 5 mps 751 mmHg 76%
    01:00 +3°C° 0 mm 5 mps 751 mmHg 75%
    02:00 +2°C° 0 mm 5 mps 751 mmHg 74%
    03:00 +1°C° 0 mm 5 mps 752 mmHg 73%
    04:00 0°C° 0 mm 5 mps 752 mmHg 72%
    05:00 0°C° 0 mm 5 mps 752 mmHg 72%
    06:00 0°C° 0 mm 5 mps 752 mmHg 70%
    07:00 -1°C° 0 mm 6 mps 753 mmHg 68%
    08:00 +1°C° 0 mm 6 mps 753 mmHg 66%
    09:00 +1°C° 0 mm 6 mps 753 mmHg 63%
    10:00 +2°C° 0 mm 6 mps 753 mmHg 61%
    11:00 +3°C° 0 mm 6 mps 754 mmHg 58%
    12:00 +4°C° 0 mm 6 mps 754 mmHg 56%
    13:00 +4°C° 0 mm 6 mps 753 mmHg 54%
    14:00 +6°C° 0 mm 5 mps 753 mmHg 52%
    15:00 +6°C° 0 mm 5 mps 754 mmHg 52%
    16:00 +6°C° 0 mm 4 mps 754 mmHg 53%
    17:00 +6°C° 0 mm 4 mps 754 mmHg 53%
    18:00 +5°C° 0 mm 3 mps 754 mmHg 58%
    19:00 +5°C° 0 mm 2 mps 754 mmHg 63%
    20:00 +4°C° 0 mm 2 mps 754 mmHg 67%
    21:00 +4°C° 0 mm 2 mps 754 mmHg 69%
    22:00 +5°C° 0 mm 1 mps 754 mmHg 70%
    23:00 +4°C° 0 mm 1 mps 754 mmHg 72%

    24 Marzo, Domingo

    Tiempo Temperatura Precipitaciones Viento Presión Humedad
    00:00 +3°C° 0 mm 2 mps 754 mmHg 73%
    01:00 +3°C° 0 mm 2 mps 754 mmHg 74%
    02:00 +3°C° 0 mm 2 mps 754 mmHg 75%
    03:00 +2°C° 0 mm 3 mps 754 mmHg 73%
    04:00 +2°C° 0 mm 3 mps 753 mmHg 72%
    05:00 +3°C° 0 mm 3 mps 753 mmHg 71%
    06:00 +4°C° 0 mm 3 mps 753 mmHg 73%
    07:00 +4°C° 0 mm 4 mps 753 mmHg 75%
    08:00 +5°C° 0 mm 4 mps 753 mmHg 77%
    09:00 +7°C° 0 mm 5 mps 753 mmHg 76%
    10:00 +8°C° 0 mm 5 mps 753 mmHg 74%
    11:00 +10°C° 0 mm 6 mps 752 mmHg 72%
    12:00 +10°C° 0.1 mm 5 mps 752 mmHg 73%
    13:00 +10°C° 0.1 mm 5 mps 752 mmHg 75%
    14:00 +10°C° 0.1 mm 5 mps 752 mmHg 76%
    15:00 +10°C° 0.3 mm 4 mps 752 mmHg 81%
    16:00 +10°C° 0.3 mm 3 mps 752 mmHg 86%
    17:00 +9°C° 0.3 mm 2 mps 752 mmHg 91%
    18:00 +8°C° 0 mm 2 mps 752 mmHg 91%
    19:00 +8°C° 0 mm 1 mps 752 mmHg 92%
    20:00 +8°C° 0 mm 1 mps 752 mmHg 92%
    21:00 +7°C° 0 mm 1 mps 752 mmHg 92%
    22:00 +6°C° 0 mm 2 mps 752 mmHg 91%
    23:00 +5°C° 0 mm 2 mps 752 mmHg 90%
    Mostrar más